Track COSMOS 2517 (GEO-IK) now! 10-day predictions COSMOS 2517 (GEO-IK) is classified as:
1 41579U 16034A 21022.82046225 -.00000038 00000-0 49976-5 0 9998 2 41579 99.2411 38.4654 0001426 93.9284 266.2026 13.85906823234561